Погода в Моа

Куба     20°39′07″N   74°56′11″W
темп.,
°C
ветер,
м/с
пор.,
м/с
влажн.,
%
обл.,
%
осадки,
мм/ч
давл.,
гПа
погр.,
м
11 мая, вт
вт1123:00+26вюв688514 0.3 1018615
02:00+26в568615 0.3 1016536
05:00+26в56867 0.1 1015516
08:00+26в678527 0.2 1017633
11:00+28в78732 0.1 1017961
14:00+28в89740 0.1 1016744
17:00+28в7876100 0.0 1015750
20:00+26вюв468566 1.6 1016432
12 мая, ср
ср1223:00+26вюв710881 0.1 1017690
02:00+25вюв56874 0.1 1016538
05:00+26в578744 0.3 1015545
08:00+27вюв68825 0.6 1016753
11:00+29в68725 0.0 1017856
14:00+29в910740 0.0 1015611
17:00+27вюв578369 1.1 1015421
20:00+26вюв678524 1.6 1016466
13 мая, чт
чт1323:00+26вюв68875 0.0 1017548
02:00+25вюв568911 0.1 1016438
05:00+26вюв67879 0.2 1015504
08:00+27вюв58833 0.3 1016608
11:00+28в787512 0.1 1016880
14:00+28в897440 0.1 1015640
17:00+28вюв797211 0.2 1013596
20:00+26вюв678222 1.0 1015356
14 мая, пт
пт1423:00+26вюв68855 0.2 1016528
02:00+25вюв56863 0.2 1015504
05:00+25юв348444 0.0 1014341
08:00+26вюв35765 0.0 1015637
11:00+28всв55660 0.0 1016867
14:00+28всв66683 0.0 1014693
17:00+28всв567211 0.0 1013691
20:00+26всв348394 0.3 1015338
15 мая, сб
сб1523:00+26всв2385100 0.2 1016354
02:00+26в2284100 0.3 1014372
05:00+25вюв238739 0.2 1014362
08:00+26вюв23815 0.4 1015272
11:00+28всв557273 0.1 1015784
14:00+28всв557014 0.1 1014678
17:00+28всв446710 0.1 1013839
20:00+26всв35792 0.1 1015570